DW8397 Weather Reports


time (UTC)temp
F
wind
direction
speed
knots
gust
knots
rain 1hr
in
rain 24hr
in
rain mn
in
humidity
%
barometer
mb
20260901220015 61 200 0.0 0.0 0.00 0.31 0.31 88 1016.5
20260901214509 61 207 0.0 0.0 0.00 0.31 0.31 88 1016.3
20260901213019 60 179 0.0 0.0 0.00 0.31 0.31 88 1016.2
20260901211511 60 214 0.0 0.0 0.00 0.31 0.31 88 1016.1
20260901210008 61 177 0.0 0.0 0.00 0.31 0.31 88 1016.1
20260901204507 61 178 0.0 0.0 0.00 0.31 0.31 88 1016.1
20260901203026 61 277 0.0 0.0 0.00 0.31 0.31 88 1015.9
20260901201507 61 217 0.0 1.7 0.00 0.31 0.31 88 1015.9
20260901200006 61 243 0.0 7.0 0.00 0.31 0.31 88 1015.7
20260901194505 61 158 0.0 2.6 0.00 0.31 0.31 88 1015.5
20260901193005 61 192 0.0 0.0 0.00 0.31 0.31 88 1015.6
20260901191504 60 255 0.0 0.0 0.00 0.31 0.31 88 1015.7
20260901190007 60 297 0.0 1.7 0.00 0.31 0.31 87 1015.8
20260901184505 60 30 0.0 1.7 0.00 0.31 0.31 87 1015.8
20260901183002 60 234 0.0 1.7 0.01 0.31 0.31 87 1015.8
20260901181501 59 200 0.0 0.0 0.01 0.31 0.31 88 1015.8
20260901180002 59 182 0.0 0.0 0.01 0.31 0.31 88 1015.5
20260901174602 59 180 0.0 0.0 0.01 0.31 0.31 88 1015.6
20260901173104 59 262 0.0 0.0 0.01 0.31 0.31 88 1015.5
20260901171559 58 254 0.0 0.9 0.00 0.30 0.30 88 1015.6
20260901170107 58 300 0.0 0.0 0.00 0.30 0.30 88 1015.6
20260901164613 58 248 0.0 0.0 0.01 0.30 0.30 88 1015.7
20260901163058 58 173 0.0 0.9 0.02 0.30 0.30 88 1015.6
20260901161559 58 109 0.0 8.7 0.02 0.30 0.30 88 1015.2
20260901160058 58 22 0.0 5.2 0.02 0.30 0.30 88 1015.0
20260901154553 58 34 0.0 3.5 0.02 0.28 0.28 88 1015.2
20260901153049 58 186 0.0 0.0 0.01 0.28 0.28 88 1015.1
20260901151650 58 109 0.0 0.0 0.01 0.28 0.28 88 1015.4
20260901150048 58 244 0.0 2.6 0.01 0.28 0.28 88 1015.6
20260901144548 58 273 0.0 0.0 0.00 0.27 0.27 88 1015.4
20260901143048 58 23 0.0 3.5 0.00 0.27 0.27 88 1015.1
20260901141546 58 266 0.0 0.0 0.00 0.27 0.27 88 1015.1
20260901140053 58 169 0.0 0.0 0.00 0.27 0.27 88 1015.2
20260901134604 58 159 0.0 0.0 0.00 0.27 0.27 88 1015.3
20260901133049 59 198 0.0 0.0 0.00 0.27 0.27 88 1015.5
20260901131543 59 198 0.0 0.0 0.00 0.27 0.27 88 1015.7
20260901130044 59 12 0.0 0.0 0.00 0.27 0.27 88 1015.6
20260901124539 59 284 0.0 0.0 0.01 0.27 0.27 88 1015.7
20260901123036 59 316 0.0 0.0 0.03 0.27 0.27 88 1015.8
20260901121533 59 351 0.0 0.0 0.08 0.27 0.27 88 1015.8
20260901120047 60 351 0.0 0.0 0.15 0.27 0.27 88 1015.9
20260901114530 60 355 0.0 0.0 0.19 0.26 0.26 89 1015.8
20260901113032 60 351 0.0 0.0 0.20 0.24 0.24 89 1015.8
20260901111526 61 28 0.0 0.0 0.17 0.18 0.18 89 1015.5
20260901110024 61 360 0.0 0.0 0.12 0.12 0.12 89 1015.9
20260901104525 61 360 0.0 0.0 0.07 0.07 0.07 89 1016.1
20260901103027 61 360 0.0 0.0 0.04 0.04 0.04 89 1015.7
20260901101521 61 360 0.0 0.0 0.01 0.01 0.01 89 1015.7
20260901100022 61 319 0.0 0.0 0.00 0.00 0.00 89 1015.4
20260901094527 61 319 0.0 0.0 0.00 0.00 0.00 89 1015.1
20260901093019 62 319 0.0 0.0 0.00 0.00 0.00 89 1014.9
20260901091517 62 319 0.0 0.0 0.00 0.00 0.00 89 1015.0
20260901090016 62 319 0.0 0.0 0.00 0.00 0.00 89 1015.2
20260901084516 62 319 0.0 0.0 0.00 0.00 0.00 89 1015.4
20260901083015 62 319 0.0 0.0 0.00 0.00 0.00 89 1015.3
20260901081514 62 319 0.0 0.0 0.00 0.00 0.00 88 1015.5
20260901080013 62 320 0.0 0.0 0.00 0.00 0.00 89 1015.4
20260901074513 62 317 0.0 0.0 0.00 0.00 0.00 89 1015.3
20260901073014 62 317 0.0 0.0 0.00 0.00 0.00 89 1015.5
20260901071520 62 317 0.0 0.0 0.00 0.00 0.00 88 1015.4
20260901070019 62 317 0.0 0.0 0.00 0.00 0.00 88 1015.6
20260901064507 63 317 0.0 0.0 0.00 0.00 0.00 88 1015.8
20260901063006 63 317 0.0 0.0 0.00 0.00 0.00 88 1016.1
20260901061505 63 317 0.0 0.0 0.00 0.00 0.00 88 1016.0
20260901060003 63 317 0.0 0.0 0.00 0.00 0.00 88 1016.1
20260901054508 63 317 0.0 0.0 0.00 0.00 0.00 88 1016.2
20260901053001 63 317 0.0 0.0 0.00 0.00 0.00 88 1016.2
20260901051611 64 317 0.0 0.0 0.00 0.00 0.00 88 1016.3
20260901050059 64 317 0.0 0.0 0.00 0.00 0.00 88 1016.4
20260901044608 64 317 0.0 0.0 0.00 0.00 0.00 88 1016.5
20260901043057 64 317 0.0 0.0 0.00 0.00 0.00 88 1016.3
20260901041555 64 317 0.0 0.0 0.00 0.00 0.00 87 1016.3
20260901040109 64 317 0.0 0.0 0.00 0.00 0.00 87 1016.2
20260901034607 64 317 0.0 0.0 0.00 0.00 0.00 87 1016.2
20260901033051 64 317 0.0 0.0 0.00 0.00 0.00 87 1016.5
20260901031551 64 317 0.0 0.0 0.00 0.00 0.00 87 1016.5
20260901030049 64 317 0.0 0.0 0.00 0.00 0.00 87 1016.5
20260901024553 64 317 0.0 0.0 0.00 0.00 0.00 86 1016.7
20260901023100 64 317 0.0 0.0 0.00 0.00 0.00 86 1016.6
20260901021554 64 317 0.0 0.0 0.00 0.00 0.00 85 1016.6
20260901020048 64 317 0.0 0.0 0.00 0.00 0.00 85 1016.6
20260901014553 64 317 0.0 0.0 0.00 0.00 0.00 85 1016.6
20260901013047 64 317 0.0 0.0 0.00 0.00 0.00 84 1016.6
20260901011547 64 317 0.0 0.0 0.00 0.00 0.00 84 1016.5
20260901010046 65 317 0.0 0.0 0.00 0.00 0.00 84 1016.6
20260901004645 65 317 0.0 0.0 0.00 0.00 0.00 83 1016.5
20260901003045 65 317 0.0 0.0 0.00 0.00 0.00 82 1016.6
20260901001644 66 317 0.0 0.0 0.00 0.00 0.00 81 1016.5
20260901000045 66 317 0.0 0.0 0.00 0.00 0.00 80 1016.4
20260831234545 67 317 0.0 0.0 0.00 0.00 0.00 79 1016.4
20260831233042 68 317 0.0 0.0 0.00 0.00 0.00 80 1016.4
20260831231542 69 317 0.0 0.0 0.00 0.00 0.00 78 1016.6
20260831230041 70 317 0.0 0.0 0.00 0.00 0.00 75 1016.8
20260831224538 71 317 0.0 0.0 0.00 0.00 0.00 73 1017.0
20260831223040 71 317 0.0 0.0 0.00 0.00 0.00 71 1017.0
20260831221538 72 317 0.0 0.0 0.00 0.00 0.00 66 1017.1